User: anonymous   Login
Location: Gleizolles
(44.4833°N, 6.7667°E)
Time: 02:21:32
(UTC+00:00)
Language:

A-11 Canister half - Orbit

View from above orbital plane
View from above orbital plane
View from above satellite
View from above satellite

Ground track
Ground track

The orbit data is extracted from the following two-line orbital elements,

1    53U 60009E   24164.13388054 -.00000103  00000-0 -16658-3 0  9997
2    53  47.2770  89.6483 0099406  62.0438 299.0371 12.17336295845889
Epoch (UTC): 12 June 2024 03:12:47
Eccentricity: 0.0099406
inclination: 47.2770°
perigee height: 1525 km
apogee height: 1683 km
right ascension of ascending node: 89.6483°
argument of perigee: 62.0438°
revolutions per day: 12.17336295
mean anomaly at epoch: 299.0371°
orbit number at epoch: 84588

The dashed part of the orbit path shows where the satellite is in the earth's shadow,  

DLR